AAY1290 KSFB-KEYW

Flight info

Callsign AAY1290
Flight time 0h 57m
Altitude 22000
Route DDANY EBAYY FNTSY1
Aircraft A319/M-SDE3FGHIRWY/LB1

Departure

Time 2026-05-07 17:43
Airport Orlando Sanford International Airport (KSFB)

Arrival

Time 2026-05-07 18:41
Airport Key West International Airport (KEYW)
Time Latitude Longitude Altitude Speed Heading
2026-05-07 17:24 28.77703 -81.24310 64 ft 0 kts 231°
2026-05-07 17:34 28.77711 -81.24299 59 ft 4 kts 231°
2026-05-07 17:34 28.77728 -81.24275 64 ft 4 kts 231°
2026-05-07 17:34 28.77741 -81.24256 60 ft 4 kts 234°
2026-05-07 17:34 28.77755 -81.24230 64 ft 4 kts 245°
2026-05-07 17:35 28.77763 -81.24201 62 ft 3 kts 267°
2026-05-07 17:35 28.77764 -81.24196 64 ft 0 kts 270°
2026-05-07 17:37 28.77760 -81.24200 58 ft 1 kts 229°
2026-05-07 17:37 28.77757 -81.24190 64 ft 1 kts 92°
2026-05-07 17:38 28.77762 -81.24161 59 ft 6 kts 94°
2026-05-07 17:38 28.77762 -81.24072 60 ft 18 kts 88°
2026-05-07 17:38 28.77764 -81.23898 64 ft 23 kts 90°
2026-05-07 17:38 28.77764 -81.23718 64 ft 22 kts 90°
2026-05-07 17:39 28.77826 -81.23629 64 ft 14 kts 39°
2026-05-07 17:39 28.77849 -81.23520 61 ft 16 kts 91°
2026-05-07 17:39 28.77846 -81.23371 64 ft 21 kts 91°
2026-05-07 17:39 28.77843 -81.23193 64 ft 23 kts 91°
2026-05-07 17:40 28.77845 -81.23012 64 ft 23 kts 88°
2026-05-07 17:40 28.77852 -81.22838 64 ft 21 kts 80°
2026-05-07 17:40 28.77969 -81.22790 57 ft 19 kts 17°
2026-05-07 17:40 28.78014 -81.22669 64 ft 18 kts 91°
2026-05-07 17:41 28.78012 -81.22529 61 ft 18 kts 91°
2026-05-07 17:41 28.78011 -81.22389 64 ft 18 kts 89°
2026-05-07 17:41 28.78013 -81.22247 64 ft 18 kts 89°
2026-05-07 17:41 28.78060 -81.22172 65 ft 12 kts
2026-05-07 17:42 28.78141 -81.22172 67 ft 11 kts 354°
2026-05-07 17:42 28.78180 -81.22227 64 ft 10 kts 268°
2026-05-07 17:42 28.78178 -81.22295 66 ft 9 kts 269°
2026-05-07 17:42 28.78180 -81.22527 64 ft 62 kts 270°
2026-05-07 17:43 28.78175 -81.23271 63 ft 123 kts 270°
2026-05-07 17:43 28.78180 -81.24432 105 ft 164 kts 267°
2026-05-07 17:43 28.78174 -81.25705 716 ft 161 kts 263°
2026-05-07 17:43 28.78106 -81.26970 1293 ft 162 kts 263°
2026-05-07 17:44 28.78035 -81.28270 1907 ft 169 kts 264°
2026-05-07 17:44 28.77811 -81.29663 2241 ft 190 kts 242°
2026-05-07 17:44 28.76816 -81.30779 2502 ft 218 kts 207°
2026-05-07 17:44 28.75227 -81.31067 2987 ft 249 kts 175°
2026-05-07 17:45 28.73565 -81.30301 3679 ft 269 kts 145°
2026-05-07 17:45 28.72252 -81.28743 4598 ft 277 kts 132°
2026-05-07 17:45 28.71019 -81.27021 5447 ft 282 kts 131°
2026-05-07 17:45 28.69812 -81.25273 6327 ft 286 kts 131°
2026-05-07 17:46 28.68537 -81.23502 7108 ft 290 kts 134°
2026-05-07 17:46 28.67162 -81.21793 7919 ft 294 kts 136°
2026-05-07 17:46 28.65743 -81.20101 8737 ft 297 kts 137°
2026-05-07 17:46 28.64296 -81.18400 9545 ft 300 kts 137°
2026-05-07 17:47 28.62825 -81.16677 10243 ft 308 kts 137°
2026-05-07 17:47 28.61291 -81.14877 10485 ft 331 kts 137°
2026-05-07 17:47 28.59636 -81.12926 10723 ft 352 kts 137°
2026-05-07 17:47 28.57924 -81.10889 11252 ft 360 kts 137°
2026-05-07 17:48 28.56184 -81.08806 11900 ft 366 kts 136°
2026-05-07 17:48 28.54413 -81.06685 12549 ft 370 kts 137°
2026-05-07 17:48 28.52624 -81.04553 13184 ft 375 kts 137°
2026-05-07 17:48 28.50814 -81.02405 13823 ft 379 kts 137°
2026-05-07 17:49 28.48973 -81.00219 14410 ft 384 kts 137°
2026-05-07 17:49 28.47114 -80.98012 14970 ft 389 kts 137°
2026-05-07 17:49 28.45231 -80.95775 15548 ft 393 kts 137°
2026-05-07 17:49 28.43349 -80.93533 16094 ft 398 kts 136°
2026-05-07 17:50 28.41423 -80.91242 16641 ft 402 kts 136°
2026-05-07 17:50 28.39475 -80.88925 17166 ft 407 kts 136°
2026-05-07 17:50 28.37500 -80.86581 17721 ft 412 kts 136°
2026-05-07 17:50 28.35502 -80.84219 18276 ft 417 kts 136°
2026-05-07 17:51 28.33483 -80.81837 18778 ft 420 kts 136°
2026-05-07 17:51 28.31469 -80.79462 19262 ft 424 kts 136°
2026-05-07 17:51 28.29406 -80.77030 19761 ft 427 kts 136°
2026-05-07 17:51 28.27339 -80.74587 20262 ft 431 kts 136°
2026-05-07 17:52 28.25252 -80.72117 20761 ft 434 kts 136°
2026-05-07 17:52 28.23094 -80.69700 21236 ft 436 kts 142°
2026-05-07 17:52 28.20673 -80.67706 21720 ft 435 kts 153°
2026-05-07 17:52 28.17942 -80.66161 21992 ft 433 kts 163°
2026-05-07 17:53 28.15121 -80.65103 22056 ft 434 kts 167°
2026-05-07 17:53 28.12215 -80.64085 22063 ft 435 kts 167°
2026-05-07 17:53 28.09315 -80.63063 22063 ft 436 kts 167°
2026-05-07 17:53 28.06452 -80.62048 22054 ft 436 kts 167°
2026-05-07 17:54 28.03547 -80.61010 22048 ft 436 kts 166°
2026-05-07 17:54 28.00655 -80.59977 22057 ft 436 kts 166°
2026-05-07 17:54 27.97758 -80.58947 22065 ft 435 kts 167°
2026-05-07 17:54 27.94867 -80.57921 22058 ft 435 kts 167°
2026-05-07 17:55 27.91977 -80.56897 22058 ft 435 kts 167°
2026-05-07 17:55 27.89078 -80.55870 22060 ft 435 kts 167°
2026-05-07 17:55 27.86224 -80.54858 22061 ft 435 kts 167°
2026-05-07 17:55 27.83330 -80.53834 22060 ft 435 kts 167°
2026-05-07 17:56 27.80432 -80.52809 22064 ft 435 kts 166°
2026-05-07 17:56 27.77533 -80.51784 22059 ft 435 kts 166°
2026-05-07 17:56 27.74621 -80.50825 22062 ft 434 kts 172°
2026-05-07 17:56 27.71656 -80.50347 22054 ft 428 kts 181°
2026-05-07 17:57 27.69698 -80.50337 22053 ft 424 kts 187°
2026-05-07 17:57 27.66746 -80.50576 22056 ft 423 kts 188°
2026-05-07 17:57 27.63833 -80.50811 22063 ft 423 kts 188°
2026-05-07 17:57 27.60888 -80.51045 22072 ft 424 kts 188°
2026-05-07 17:58 27.57924 -80.51279 22071 ft 424 kts 188°
2026-05-07 17:58 27.54976 -80.51511 22069 ft 424 kts 188°
2026-05-07 17:58 27.52064 -80.51740 22071 ft 424 kts 188°
2026-05-07 17:58 27.49106 -80.51974 22067 ft 424 kts 188°
2026-05-07 17:59 27.46149 -80.52209 22067 ft 424 kts 188°
2026-05-07 17:59 27.43231 -80.52440 22069 ft 424 kts 188°
2026-05-07 17:59 27.40285 -80.52672 22057 ft 424 kts 188°
2026-05-07 17:59 27.37327 -80.52905 22057 ft 424 kts 188°
2026-05-07 18:00 27.34370 -80.53141 22060 ft 424 kts 188°
2026-05-07 18:00 27.31467 -80.53375 22060 ft 424 kts 188°
2026-05-07 18:00 27.28514 -80.53610 22061 ft 425 kts 188°
2026-05-07 18:00 27.25566 -80.53841 22062 ft 425 kts 188°
2026-05-07 18:01 27.22613 -80.54071 22070 ft 424 kts 188°
2026-05-07 18:01 27.19656 -80.54302 22073 ft 424 kts 188°
2026-05-07 18:01 27.16713 -80.54533 22075 ft 424 kts 188°
2026-05-07 18:01 27.13772 -80.54763 22067 ft 424 kts 188°
2026-05-07 18:02 27.07908 -80.55216 22074 ft 424 kts 188°
2026-05-07 18:02 27.04968 -80.55444 22076 ft 423 kts 188°
2026-05-07 18:02 27.02017 -80.55674 22076 ft 423 kts 188°
2026-05-07 18:03 26.99097 -80.55904 22074 ft 423 kts 188°
2026-05-07 18:03 26.96158 -80.56135 22076 ft 423 kts 188°
2026-05-07 18:03 26.93208 -80.56366 22076 ft 423 kts 188°
2026-05-07 18:03 26.90266 -80.56596 22079 ft 423 kts 188°
2026-05-07 18:04 26.87320 -80.56828 22080 ft 423 kts 188°
2026-05-07 18:04 26.84380 -80.57061 22073 ft 423 kts 188°
2026-05-07 18:04 26.81444 -80.57294 22073 ft 423 kts 188°
2026-05-07 18:04 26.78508 -80.57526 22071 ft 423 kts 188°
2026-05-07 18:05 26.75593 -80.57755 22066 ft 423 kts 187°
2026-05-07 18:05 26.72659 -80.57982 22067 ft 423 kts 187°
2026-05-07 18:05 26.69721 -80.58210 22072 ft 423 kts 187°
2026-05-07 18:05 26.66781 -80.58440 22079 ft 423 kts 188°
2026-05-07 18:06 26.63877 -80.58667 22080 ft 423 kts 188°
2026-05-07 18:06 26.60940 -80.58895 22076 ft 423 kts 188°
2026-05-07 18:06 26.58007 -80.59123 22075 ft 423 kts 187°
2026-05-07 18:06 26.55064 -80.59349 22060 ft 423 kts 187°
2026-05-07 18:07 26.52129 -80.59576 22062 ft 423 kts 187°
2026-05-07 18:07 26.49187 -80.59806 22063 ft 423 kts 187°
2026-05-07 18:07 26.46247 -80.60036 22068 ft 422 kts 187°
2026-05-07 18:07 26.43350 -80.60262 22074 ft 422 kts 187°
2026-05-07 18:08 26.40380 -80.60493 22065 ft 422 kts 187°
2026-05-07 18:08 26.37482 -80.60716 22063 ft 422 kts 187°
2026-05-07 18:08 26.34549 -80.60937 22059 ft 422 kts 187°
2026-05-07 18:08 26.31608 -80.61162 22056 ft 422 kts 187°
2026-05-07 18:09 26.28677 -80.61389 22056 ft 422 kts 187°
2026-05-07 18:09 26.25749 -80.61617 22049 ft 422 kts 187°
2026-05-07 18:09 26.22860 -80.61844 22045 ft 421 kts 187°
2026-05-07 18:09 26.19933 -80.62070 22044 ft 422 kts 187°
2026-05-07 18:10 26.16995 -80.62292 22044 ft 422 kts 187°
2026-05-07 18:10 26.14061 -80.62511 22045 ft 422 kts 187°
2026-05-07 18:10 26.11121 -80.62730 22047 ft 422 kts 187°
2026-05-07 18:10 26.08175 -80.62948 22048 ft 423 kts 187°
2026-05-07 18:11 26.05272 -80.63162 22051 ft 423 kts 187°
2026-05-07 18:11 26.03319 -80.63305 22053 ft 423 kts 187°
2026-05-07 18:11 25.99381 -80.63598 22058 ft 423 kts 187°
2026-05-07 18:11 25.96438 -80.63818 22061 ft 423 kts 187°
2026-05-07 18:12 25.93502 -80.64036 22052 ft 423 kts 187°
2026-05-07 18:12 25.90604 -80.64254 22052 ft 423 kts 187°
2026-05-07 18:12 25.87652 -80.64473 22054 ft 423 kts 186°
2026-05-07 18:12 25.84704 -80.64692 22057 ft 424 kts 187°
2026-05-07 18:13 25.81759 -80.64910 22063 ft 423 kts 186°
2026-05-07 18:13 25.78852 -80.65125 22061 ft 423 kts 186°
2026-05-07 18:13 25.75914 -80.65341 22062 ft 423 kts 186°
2026-05-07 18:13 25.72973 -80.65557 22063 ft 423 kts 186°
2026-05-07 18:14 25.70034 -80.65775 22058 ft 423 kts 187°
2026-05-07 18:14 25.67090 -80.65996 22070 ft 423 kts 187°
2026-05-07 18:14 25.64149 -80.66218 22078 ft 423 kts 186°
2026-05-07 18:14 25.61205 -80.66441 22072 ft 424 kts 186°
2026-05-07 18:15 25.58259 -80.66662 22069 ft 424 kts 186°
2026-05-07 18:15 25.55307 -80.66880 22074 ft 424 kts 186°
2026-05-07 18:15 25.52360 -80.67095 22076 ft 424 kts 186°
2026-05-07 18:15 25.49405 -80.67308 22078 ft 424 kts 186°
2026-05-07 18:16 25.46458 -80.67519 22074 ft 424 kts 186°
2026-05-07 18:16 25.43509 -80.67733 22067 ft 424 kts 186°
2026-05-07 18:16 25.40557 -80.67953 22065 ft 424 kts 186°
2026-05-07 18:16 25.37647 -80.68395 22068 ft 421 kts 195°
2026-05-07 18:17 25.34847 -80.69177 21985 ft 417 kts 197°
2026-05-07 18:17 25.32061 -80.69963 21733 ft 410 kts 197°
2026-05-07 18:17 25.29301 -80.70737 21490 ft 408 kts 197°
2026-05-07 18:17 25.26551 -80.71509 21257 ft 407 kts 197°
2026-05-07 18:18 25.23808 -80.72279 21012 ft 406 kts 196°
2026-05-07 18:18 25.21078 -80.73042 20779 ft 405 kts 196°
2026-05-07 18:18 25.18340 -80.73807 20541 ft 403 kts 196°
2026-05-07 18:18 25.15619 -80.74570 20293 ft 400 kts 196°
2026-05-07 18:19 25.12937 -80.75323 19852 ft 396 kts 196°
2026-05-07 18:19 25.10270 -80.76071 19361 ft 395 kts 196°
2026-05-07 18:19 25.07648 -80.76805 18868 ft 393 kts 195°
2026-05-07 18:19 25.04987 -80.77550 18349 ft 392 kts 195°
2026-05-07 18:20 25.02356 -80.78360 17785 ft 391 kts 201°
2026-05-07 18:20 24.99910 -80.79633 17274 ft 386 kts 212°
2026-05-07 18:20 24.97765 -80.81380 16730 ft 384 kts 223°
2026-05-07 18:20 24.95791 -80.83356 16195 ft 383 kts 223°
2026-05-07 18:21 24.93824 -80.85321 15702 ft 380 kts 223°
2026-05-07 18:21 24.91863 -80.87270 15199 ft 378 kts 222°
2026-05-07 18:21 24.89934 -80.89182 14713 ft 376 kts 222°
2026-05-07 18:21 24.87983 -80.91113 14205 ft 374 kts 221°
2026-05-07 18:22 24.86051 -80.93026 13689 ft 372 kts 221°
2026-05-07 18:22 24.84775 -80.94287 13339 ft 371 kts 221°
2026-05-07 18:22 24.82217 -80.96818 12662 ft 366 kts 221°
2026-05-07 18:22 24.80356 -80.98661 12159 ft 363 kts 221°
2026-05-07 18:23 24.78485 -81.00513 11649 ft 360 kts 221°
2026-05-07 18:23 24.76754 -81.02506 11129 ft 358 kts 232°
2026-05-07 18:23 24.75393 -81.04794 10616 ft 356 kts 238°
2026-05-07 18:23 24.74116 -81.07090 10436 ft 344 kts 238°
2026-05-07 18:24 24.72888 -81.09293 10306 ft 330 kts 238°
2026-05-07 18:24 24.71723 -81.11381 10192 ft 316 kts 238°
2026-05-07 18:24 24.70592 -81.13407 9847 ft 307 kts 238°
2026-05-07 18:24 24.69485 -81.15387 9690 ft 303 kts 238°
2026-05-07 18:25 24.68377 -81.17361 9333 ft 302 kts 238°
2026-05-07 18:25 24.67278 -81.19318 8923 ft 300 kts 238°
2026-05-07 18:25 24.66186 -81.21267 8523 ft 299 kts 238°
2026-05-07 18:25 24.65095 -81.23214 8125 ft 297 kts 237°
2026-05-07 18:26 24.63832 -81.24989 7785 ft 292 kts 229°
2026-05-07 18:26 24.62533 -81.26642 7602 ft 286 kts 229°
2026-05-07 18:26 24.61233 -81.28294 7544 ft 285 kts 229°
2026-05-07 18:26 24.59932 -81.29946 7465 ft 286 kts 229°
2026-05-07 18:27 24.58629 -81.31605 7327 ft 286 kts 229°
2026-05-07 18:27 24.57328 -81.33261 7189 ft 285 kts 229°
2026-05-07 18:27 24.56063 -81.34933 7054 ft 284 kts 235°
2026-05-07 18:27 24.55402 -81.36163 6962 ft 283 kts 243°
2026-05-07 18:28 24.54209 -81.38709 6768 ft 282 kts 243°
2026-05-07 18:28 24.53309 -81.40611 6634 ft 280 kts 242°
2026-05-07 18:28 24.52407 -81.42510 6499 ft 279 kts 243°
2026-05-07 18:28 24.51513 -81.44398 6359 ft 278 kts 243°
2026-05-07 18:29 24.50620 -81.46283 6220 ft 277 kts 243°
2026-05-07 18:29 24.49729 -81.48164 6082 ft 277 kts 243°
2026-05-07 18:29 24.48842 -81.50037 5950 ft 275 kts 243°
2026-05-07 18:29 24.47956 -81.51902 5817 ft 275 kts 243°
2026-05-07 18:30 24.47085 -81.53760 5686 ft 274 kts 245°
2026-05-07 18:30 24.46538 -81.55748 5540 ft 272 kts 261°
2026-05-07 18:30 24.46445 -81.57798 5422 ft 272 kts 270°
2026-05-07 18:30 24.46434 -81.59877 5295 ft 272 kts 269°
2026-05-07 18:31 24.46418 -81.61954 5156 ft 271 kts 269°
2026-05-07 18:31 24.46397 -81.64020 5022 ft 268 kts 269°
2026-05-07 18:31 24.46376 -81.66017 4908 ft 254 kts 269°
2026-05-07 18:31 24.46358 -81.67908 4800 ft 241 kts 269°
2026-05-07 18:32 24.46342 -81.69685 4700 ft 229 kts 269°
2026-05-07 18:32 24.46326 -81.71401 4601 ft 222 kts 269°
2026-05-07 18:32 24.46310 -81.73111 4503 ft 225 kts 269°
2026-05-07 18:32 24.46294 -81.74835 4350 ft 227 kts 268°
2026-05-07 18:33 24.46275 -81.76553 4191 ft 224 kts 268°
2026-05-07 18:33 24.46256 -81.78270 4134 ft 225 kts 268°
2026-05-07 18:33 24.46238 -81.79975 4090 ft 226 kts 268°
2026-05-07 18:33 24.46220 -81.81696 4046 ft 224 kts 268°
2026-05-07 18:34 24.46203 -81.83411 4001 ft 225 kts 268°
2026-05-07 18:34 24.46186 -81.85132 3953 ft 226 kts 268°
2026-05-07 18:34 24.46169 -81.86855 3908 ft 225 kts 268°
2026-05-07 18:34 24.46151 -81.88576 3864 ft 225 kts 268°
2026-05-07 18:35 24.46134 -81.90277 3818 ft 225 kts 268°
2026-05-07 18:35 24.46118 -81.91998 3768 ft 225 kts 268°
2026-05-07 18:35 24.46102 -81.93719 3721 ft 224 kts 270°
2026-05-07 18:35 24.46511 -81.95345 3679 ft 227 kts 303°
2026-05-07 18:36 24.47699 -81.96459 3628 ft 229 kts 338°
2026-05-07 18:36 24.49270 -81.96701 3584 ft 230 kts
2026-05-07 18:36 24.50869 -81.96694 3530 ft 230 kts 360°
2026-05-07 18:36 24.52476 -81.96711 3482 ft 230 kts 359°
2026-05-07 18:37 24.54068 -81.96613 3426 ft 231 kts 18°
2026-05-07 18:37 24.55321 -81.95614 3339 ft 221 kts 60°
2026-05-07 18:37 24.55748 -81.94045 3133 ft 213 kts 86°
2026-05-07 18:37 24.55776 -81.92424 2868 ft 211 kts 94°
2026-05-07 18:38 24.55713 -81.90813 2617 ft 210 kts 94°
2026-05-07 18:38 24.55653 -81.89248 2293 ft 206 kts 94°
2026-05-07 18:38 24.55611 -81.87686 1997 ft 203 kts 93°
2026-05-07 18:38 24.55589 -81.86173 1712 ft 192 kts 92°
2026-05-07 18:39 24.55579 -81.84763 1456 ft 178 kts 92°
2026-05-07 18:39 24.55575 -81.83446 1230 ft 167 kts 91°
2026-05-07 18:39 24.55578 -81.82209 1022 ft 156 kts 91°
2026-05-07 18:39 24.55584 -81.81086 826 ft 142 kts 92°
2026-05-07 18:40 24.55591 -81.80028 644 ft 137 kts 92°
2026-05-07 18:40 24.55599 -81.78996 459 ft 134 kts 93°
2026-05-07 18:40 24.55607 -81.77979 283 ft 133 kts 92°
2026-05-07 18:40 24.55607 -81.76960 85 ft 133 kts 94°
2026-05-07 18:41 24.55609 -81.76001 10 ft 104 kts 91°
2026-05-07 18:41 24.55618 -81.75500 17 ft 44 kts 89°
2026-05-07 18:41 24.55599 -81.75265 16 ft 19 kts 142°
2026-05-07 18:41 24.55526 -81.75286 19 ft 8 kts 228°
2026-05-07 18:42 24.55493 -81.75342 15 ft 9 kts 248°
2026-05-07 18:42 24.55485 -81.75385 15 ft 4 kts 264°
2026-05-07 18:42 24.55484 -81.75404 15 ft 2 kts 270°
2026-05-07 18:42 24.55469 -81.75414 14 ft 1 kts 153°
2026-05-07 18:43 24.55463 -81.75404 14 ft 2 kts 127°
2026-05-07 18:43 24.55454 -81.75386 16 ft 3 kts 120°
2026-05-07 18:43 24.55449 -81.75360 16 ft 4 kts 77°
2026-05-07 18:43 24.55470 -81.75345 14 ft 4 kts
2026-05-07 18:44 24.55482 -81.75352 16 ft 3 kts 321°
2026-05-07 18:44 24.55490 -81.75379 15 ft 5 kts 277°
2026-05-07 18:44 24.55481 -81.75406 15 ft 2 kts 237°
2026-05-07 18:44 24.55473 -81.75418 14 ft 1 kts 229°
2026-05-07 18:45 24.55468 -81.75424 14 ft 0 kts 229°